Location: Bagnara
(41.0500°N, 14.7833°E)
Time: 13:45:57
(UTC+00:00)

Cosmos 405 Rocket - Pass Details

Date: 20 June 2021
Orbit: 489 x 552 km, 81.3° (Epoch: 05 August)

Event Time Altitude Azimuth Distance (km) Brightness Sun altitude
Exits shadow 00:23:34 35° 302° (WNW) 817 3.7 -22.8°
Drops below altitude 10° 00:26:31 10° 352° (N) 1,688 6.1 -22.6°
Sets 00:28:46 0° 1° (N) 2,576 7.5 -22.5°
